Weather History for Mobile, AL

Change the Weather History Date:

Sunday, January 5, 2014

  Actual Average Record
Temperature  
Mean Temperature 55 °F 50 °F  
Max Temperature 67 °F 61 °F 77 °F (2005)
Min Temperature 42 °F 40 °F 18 °F (1999)
Degree Days  
Heating Degree Days 10 15  
Month to date heating degree days 98 75  
Since 1 July heating degree days 776 737  
Cooling Degree Days 0 0  
Month to date cooling degree days 0 0  
Year to date cooling degree days 0 0  
Growing Degree Days 4 (Base 50)    
Moisture  
Dew Point 48 °F    
Average Humidity 80    
Maximum Humidity 93    
Minimum Humidity 67    
Precipitation  
Precipitation 0.02 in 0.17 in 3.38 in (1998)
Month to date precipitation 1.06 0.83  
Year to date precipitation 1.06 0.83  
Snow  
Snow 0.00 in 0.00 in 0.00 in (2002)
Month to date snowfall 0.0 0.0  
Since 1 July snowfall 0.0 T  
Snow Depth 0.00 in    
Sea Level Pressure  
Sea Level Pressure 29.98 in    
Wind  
Wind Speed 9 mph (ESE)    
Max Wind Speed 23 mph    
Max Gust Speed 33 mph    
Visibility 10 miles    
Events Rain    
T = Trace of Precipitation, MM = Missing Value Source: NWS Daily Summary

Daily Weather History Graph

Daily Weather History Graph

Search for Another Location

Airport:

Trip Planner

Search our weather history database for the weather conditions in past years. The results will help you decide how hot, cold, wet, or windy it might be!

Date:

Astronomy

Jan. 05, 2014 Rise Set
Actual Time 6:51 AM CST 5:05 PM CST
Civil Twilight 6:24 AM CST 5:32 PM CST
Nautical Twilight 5:54 AM CST 6:02 PM CST
Astronomical Twilight 5:25 AM CST 6:31 PM CST
Moon 9:53 AM CST (1/5) 10:09 PM CST (1/5)
Length of Visible Light 11h 07m
Length of Day
10h 14m
Waxing Crescent, 25% of the Moon is Illuminated
Jan 5
Waxing Crescent
Jan 7
First Quarter
Jan 15
Full
Jan 23
Last Quarter
Jan 30
New

Hourly Weather History & Observations

Time (CST) Temp. Windchill Dew Point Humidity Pressure Visibility Wind Dir Wind Speed Gust Speed Precip Events Conditions
12:03 AM 48.0 °F - 42.1 °F 80% 30.06 in 10.0 mi East 8.1 mph - N/A   Mostly Cloudy
12:54 AM 48.2 °F - 42.8 °F 82% 30.06 in 10.0 mi ENE 5.8 mph - N/A   Overcast
12:56 AM 48.0 °F - 42.1 °F 80% 30.06 in 10.0 mi ENE 5.8 mph - N/A   Overcast
1:56 AM 46.9 °F - 42.1 °F 83% 30.04 in 10.0 mi NE 5.8 mph - N/A   Overcast
2:24 AM 46.9 °F - 42.1 °F 83% 30.04 in 10.0 mi NE 6.9 mph - N/A   Overcast
2:45 AM 46.9 °F - 42.1 °F 83% 30.03 in 10.0 mi ENE 6.9 mph - N/A   Overcast
2:56 AM 46.0 °F 42.5 °F 41.0 °F 83% 30.03 in 10.0 mi ENE 6.9 mph - N/A   Overcast
3:54 AM 46.4 °F 42.9 °F 42.8 °F 87% 30.01 in 10.0 mi ENE 6.9 mph - N/A   Overcast
3:56 AM 46.9 °F - 42.1 °F 83% 30.01 in 10.0 mi East 5.8 mph - N/A   Overcast
4:32 AM 46.9 °F - 42.1 °F 83% 30.01 in 10.0 mi East 8.1 mph - N/A   Overcast
4:56 AM 48.0 °F - 43.0 °F 83% 30.00 in 10.0 mi East 8.1 mph - N/A   Overcast
5:22 AM 46.9 °F - 43.0 °F 86% 30.00 in 10.0 mi East 6.9 mph - N/A   Overcast
5:56 AM 48.0 °F - 43.0 °F 83% 30.00 in 10.0 mi ENE 4.6 mph - N/A   Overcast
6:26 AM 48.0 °F - 44.1 °F 86% 30.02 in 10.0 mi East 4.6 mph - N/A   Overcast
6:47 AM 48.0 °F - 44.1 °F 86% 30.02 in 10.0 mi East 5.8 mph - N/A   Overcast
6:56 AM 48.0 °F - 44.1 °F 86% 30.02 in 10.0 mi ENE 5.8 mph - N/A   Overcast
7:56 AM 50.0 °F - 45.0 °F 83% 30.03 in 8.0 mi East 5.8 mph - N/A   Mostly Cloudy
8:56 AM 53.1 °F - 48.0 °F 83% 30.03 in 8.0 mi ESE 6.9 mph - N/A   Mostly Cloudy
9:56 AM 57.0 °F - 51.1 °F 81% 30.02 in 10.0 mi SE 6.9 mph - N/A   Mostly Cloudy
10:56 AM 62.1 °F - 53.1 °F 72% 30.00 in 10.0 mi SSE 6.9 mph - N/A   Mostly Cloudy
11:56 AM 63.0 °F - 53.1 °F 70% 29.96 in 10.0 mi South 4.6 mph - N/A   Mostly Cloudy
12:56 PM 64.9 °F - 54.0 °F 68% 29.92 in 10.0 mi South 10.4 mph - N/A   Overcast
1:56 PM 64.9 °F - 55.0 °F 70% 29.92 in 10.0 mi SSW 12.7 mph - N/A   Overcast
2:06 PM 64.9 °F - 55.0 °F 70% 29.92 in 10.0 mi SW 11.5 mph - N/A   Overcast
2:31 PM 64.0 °F - 55.0 °F 73% 29.91 in 10.0 mi SSW 9.2 mph - N/A   Overcast
2:56 PM 64.9 °F - 55.0 °F 70% 29.91 in 10.0 mi SSW 9.2 mph - N/A   Overcast
3:56 PM 64.0 °F - 55.9 °F 75% 29.89 in 10.0 mi SSE 11.5 mph - N/A   Mostly Cloudy
4:56 PM 61.0 °F - 55.9 °F 83% 29.89 in 10.0 mi South 10.4 mph - N/A   Scattered Clouds
5:56 PM 61.0 °F - 57.0 °F 87% 29.88 in 10.0 mi South 10.4 mph - N/A   Mostly Cloudy
6:56 PM 61.0 °F - 57.9 °F 90% 29.88 in 10.0 mi South 10.4 mph - N/A   Overcast
7:56 PM 61.0 °F - 60.1 °F 97% 29.88 in 9.0 mi SSW 12.7 mph - 0.02 in Rain Light Rain
8:23 PM 61.0 °F - 61.0 °F 100% 29.92 in 10.0 mi West 13.8 mph 23.0 mph 0.00 in Rain Light Rain
8:32 PM 60.1 °F - 60.1 °F 100% 29.92 in 10.0 mi WNW 11.5 mph 23.0 mph 0.00 in   Overcast
8:56 PM 54.0 °F - 54.0 °F 100% 29.94 in 10.0 mi NW 11.5 mph 21.9 mph 0.00 in   Overcast
9:51 PM 48.2 °F - 46.4 °F 93% 29.97 in 10.0 mi NW 17.3 mph 24.2 mph N/A   Overcast
9:56 PM 48.0 °F - 46.0 °F 93% 29.98 in 10.0 mi NNW 15.0 mph 25.3 mph N/A   Overcast
10:56 PM 44.1 °F 36.8 °F 41.0 °F 89% 30.02 in 10.0 mi NW 16.1 mph 32.2 mph N/A   Overcast
11:56 PM 42.1 °F 33.9 °F 39.0 °F 89% 30.04 in 10.0 mi NW 17.3 mph 27.6 mph N/A   Overcast